Home > Weather > Leicester > Past weeks

Flag for United Kingdom Past Weather in Leicester, England, United Kingdom — Yesterday and Last 2 Weeks

Now
59 °F

Sunny.


Feels Like: 58 °F
Forecast: 53 / 66 °F
Wind: 7 mph from Northwest

Location: East Midlands

Current Time: Jun 25, 2016 at 9:58:25 AM

Latest Report: Jun 25, 2016 at 9:20 AM


Visibility: 10 mi

Pressure: 30.04 "Hg

Humidity: 77%

Dew Point: 52 °F

Location of LeicesterLocation

Past Weather in Leicester — Graph

°F

Leicester Temperature Yesterday

Maximum temperature yesterday: 68 °F (at 1:20 PM)
Minimum temperature yesterday: 52 °F (at 3:20 AM)
Average temperature yesterday: 60 °F

High & Low Weather Summary for the Past Weeks

 TemperatureHumidityPressure
High72 °F (Jun 23, 2:20 PM)100% (Jun 10, 9:20 PM)30.21 "Hg (Jun 10, 9:20 PM)
Low50 °F (Jun 25, 1:50 AM)46% (Jun 24, 1:50 PM)29.33 "Hg (Jun 14, 4:50 PM)
Average60 °F85%29.82 "Hg
* Reported Jun 10 8:20 AM — Jun 25 8:20 AM, Leicester, Weather by CustomWeather, © 2016

Note: Actual official high and low records may vary slightly from our data, if they occured in-between our weather recording intervals... More about our weather records

Advertising

Leicester Weather History for the Previous 24 Hours

Scroll right to see more
 ConditionsComfort  
Time TempWeatherWind HumidityBarometerVisibility
8:20 AM
Sat, Jun 25
55 °FSunny.8 mph88%30.04 "Hg10 mi
7:20 AM54 °FSunny.8 mph88%30.01 "Hg10 mi
6:50 AM54 °FSunny.7 mph88%30.01 "Hg10 mi
6:20 AM54 °FSunny.7 mph88%30.01 "Hg10 mi
5:50 AM52 °FSunny.6 mph94%30.01 "Hg10 mi
5:20 AM52 °FClear.6 mph88%30.01 "Hg10 mi
4:50 AM50 °FClear.5 mph94%30.01 "Hg10 mi
4:20 AM52 °FClear.5 mph88%30.01 "Hg10 mi
3:50 AM52 °FClear.5 mph88%30.01 "Hg10 mi
3:20 AM52 °FClear.6 mph88%30.01 "Hg10 mi
2:50 AM52 °FClear.5 mph88%30.01 "Hg10 mi
2:20 AM50 °FClear.7 mph88%30.01 "Hg10 mi
1:50 AM50 °FClear.8 mph88%30.01 "Hg10 mi
1:20 AM52 °FClear.8 mph82%30.01 "Hg10 mi
12:50 AM54 °FClear.9 mph82%30.01 "Hg10 mi
12:20 AM55 °FClear.6 mph77%30.01 "Hg10 mi
11:50 PM
Fri, Jun 24
55 °FPassing clouds.7 mph77%30.01 "HgN/A
11:20 PM55 °FClear.7 mph77%30.01 "Hg10 mi
10:50 PM55 °FClear.8 mph82%30.01 "Hg10 mi
10:20 PM57 °FSunny.8 mph77%30.01 "Hg10 mi
9:50 PM59 °FPassing clouds.7 mph72%30.01 "HgN/A
9:20 PM59 °FPassing clouds.6 mph72%30.01 "HgN/A
8:50 PM59 °FPassing clouds.8 mph72%30.01 "HgN/A
8:20 PM61 °FPassing clouds.10 mph68%30.01 "HgN/A
7:50 PM64 °FPassing clouds.10 mph56%30.01 "HgN/A
6:50 PM63 °FScattered clouds.13 mph59%29.98 "HgN/A
6:20 PM63 °FPartly sunny.13 mph64%29.98 "HgN/A
5:50 PM61 °FSprinkles. Partly sunny.15 mph68%29.98 "HgN/A
5:20 PM64 °FScattered showers. Scattered clouds.9 mph68%29.98 "HgN/A
4:50 PM66 °FScattered clouds.6 mph60%29.98 "HgN/A
4:20 PM61 °FOvercast.9 mph77%30.01 "HgN/A
3:50 PM61 °FScattered showers. Partly sunny.9 mph72%29.98 "HgN/A
3:20 PM64 °FScattered showers. Partly sunny.13 mph56%29.98 "HgN/A
2:50 PM66 °FScattered clouds.14 mph56%29.98 "HgN/A
2:20 PM66 °FScattered clouds.14 mph52%29.98 "HgN/A
1:50 PM68 °FScattered clouds.14 mph46%29.98 "HgN/A
1:20 PM68 °FScattered clouds.16 mph53%30.01 "HgN/A
12:50 PM64 °FPartly sunny.13 mph56%30.01 "HgN/A
12:20 PM64 °FPartly sunny.15 mph56%30.01 "HgN/A
11:50 AM66 °FPartly sunny.15 mph52%30.01 "HgN/A
11:20 AM64 °FBroken clouds.15 mph64%30.01 "HgN/A
10:50 AM63 °FPartly sunny.15 mph64%30.01 "HgN/A
10:20 AM64 °FPartly sunny.14 mph60%30.01 "HgN/A
9:50 AM63 °FScattered clouds.14 mph59%30.01 "HgN/A
9:20 AM64 °FScattered clouds.14 mph64%30.01 "HgN/A
Weather by CustomWeather, © 2016

See weather overviewHow to use our weather pages